FENGYUN 1C DEB

Satellite information

Favourite Embed

Satellite Type and Status

DEBRISIN ORBIT

Key statistics

Satellite FENGYUN 1C DEB at a glance.

Uptime

9494

Days in orbit

Revolutions

≈ 14.2

Per day

Orbit

SSO

Sun Synchronous Orbit

Inclination

98.7

Latest

Satellite identification and parameters

Extended collection of information and parameters for FENGYUN 1C DEB.

Object identification

Identified? True

Debris? True

Object name: FENGYUN 1C DEB

International designator: 1999-025DWM

Object number (NORAD): 36260

Object ID (CCSDS): 36260

Country: PEOPLES REPUBLIC OF CHINA (PRC)

Current information (Y/N): Y

RCS size: SMALL

Orbital parameters

Period: 101.752 minutes

Inclination: 98.6598 deg

SMA: 7219.771 km

Apoapsis: 853.583 km

Periapsis: 829.689 km

RAAN: 134.7986 deg

Eccentricy: 0.0016548

Argument of periapsis: 157.6596 deg

Mean anomaly: 202.5302 deg

Mean motion: 14.15199383 rev/day

Mean motion (dot): 0.0000042 rev/day2

B* drag term: 0.00023764 1/REarth

Two-line elements (TLE)

Creation date: May 7, 2025, 3:14 a.m.

Reference frame: TEME

Reference center: EARTH

Epoch: May 6, 2025, 6:47 a.m. UTC

TLE line 0: 0 FENGYUN 1C DEB

TLE line 1: 1 36260U 99025DWM 25126.28284357 .00000420 00000-0 23764-3 0 9998

TLE line 2: 2 36260 98.6598 134.7986 0016548 157.6596 202.5302 14.15199383846900

Live tracking on map

Real-time ground track for satellite FENGYUN 1C DEB.

In-orbit conjunctions

A list of the most updated potential collisions computed for object FENGYUN 1C DEB.

Target Orbit TCA Probability of collision Miss distance Type
CZ-6A DEB LEO 2024-12-06 01:13:07 0.0004172363 679.0 (m) DEBRIS
METEOR 1-5 DEB LEO 2024-11-10 07:41:12 0.0002721393 841.0 (m) DEBRIS

Associated space launch

Chinese polar orbiting meteorological satellite

FENGYUN 1C DEB was lifted into orbit during the mission ‘Long March 4B | Feng Yun 1C’, on board a Long March 4B space rocket.

The launch took place on May 10, 1999, 1:33 a.m. from Launch Complex 7.

For more information about the launch, click the button.

Launch to space Long March 4B | Feng Yun 1C
Long March 4B | Feng Yun 1C

Agency: N/A

Status: Launch Successful

Launch date: May 10, 1999, 1:33 a.m. UTC

Rocket: Long March 4B

Launch pad: Launch Complex 7

Location: Taiyuan Satellite Launch Center, People's Republic of China

...

Latest news about this satellite

There are no fresh news available about this satellite. Check back as we update our databases every day.


Newsletter sign-up

Weekly statistics, charts and insights to help you stay on top of the space industry.